KC3JUG-3 Weather Reports


time (UTC)temp
C
wind
direction
speed
KPH
gust
KPH
rain 1hr
cm
rain 24hr
cm
rain mn
cm
humidity
%
barometer
mb
20260505004552 17 240 1.6 6.4 0.00 0.00 0.00 53 1011.5
20260505004047 17 218 1.6 4.8 0.00 0.00 0.00 53 1011.5
20260505003546 17 218 1.6 4.8 0.00 0.00 0.00 53 1011.5
20260505003055 17 214 1.6 4.8 0.00 0.00 0.00 53 1011.3
20260505002550 17 0 0.0 3.2 0.00 0.00 0.00 53 1011.3
20260505002049 17 263 0.0 3.2 0.00 0.00 0.00 53 1011.4
20260505001554 17 263 0.0 4.8 0.00 0.00 0.00 52 1011.2
20260505001048 17 0 1.6 4.8 0.00 0.00 0.00 52 1011.2
20260505000547 18 263 1.6 4.8 0.00 0.00 0.00 51 1011.2
20260504235547 18 251 1.6 6.4 0.00 0.00 0.00 51 1011.2
20260504235048 18 259 1.6 6.4 0.00 0.00 0.00 50 1011.1
20260504234557 18 197 3.2 6.4 0.00 0.00 0.00 49 1011.1
20260504234047 18 197 3.2 6.4 0.00 0.00 0.00 49 1011.1
20260504233547 18 195 3.2 6.4 0.00 0.00 0.00 49 1011.1
20260504233054 18 196 1.6 9.7 0.00 0.00 0.00 50 1011.0
20260504232548 19 226 1.6 9.7 0.00 0.00 0.00 49 1011.0
20260504232047 19 211 1.6 8.0 0.00 0.00 0.00 49 1011.1
20260504231602 19 196 1.6 8.0 0.00 0.00 0.00 48 1011.1
20260504231047 19 196 3.2 8.0 0.00 0.00 0.00 47 1011.1
20260504230547 20 183 1.6 8.0 0.00 0.00 0.00 47 1011.1
20260504230150 20 243 1.6 6.4 0.00 0.00 0.00 47 1011.1
20260504230057 20 243 1.6 6.4 0.00 0.00 0.00 47 1011.1
20260504225548 20 244 3.2 4.8 0.00 0.00 0.00 46 1011.0
20260504225047 20 222 1.6 8.0 0.00 0.00 0.00 47 1011.0
20260504224555 20 214 1.6 11.3 0.00 0.00 0.00 46 1011.1
20260504224048 20 215 1.6 11.3 0.00 0.00 0.00 46 1011.1
20260504223548 20 193 3.2 11.3 0.00 0.00 0.00 45 1011.1
20260504223053 20 200 3.2 11.3 0.00 0.00 0.00 45 1011.1
20260504222548 20 195 3.2 11.3 0.00 0.00 0.00 45 1011.1
20260504222047 20 190 3.2 17.7 0.00 0.00 0.00 44 1011.1
20260504221558 20 248 6.4 17.7 0.00 0.00 0.00 45 1011.1
20260504221047 20 192 4.8 11.3 0.00 0.00 0.00 44 1011.2
20260504220548 20 163 3.2 11.3 0.00 0.00 0.00 44 1011.2
20260504220056 20 203 3.2 11.3 0.00 0.00 0.00 44 1011.3
20260504215548 20 229 1.6 12.9 0.00 0.00 0.00 44 1011.2
20260504215046 20 190 3.2 12.9 0.00 0.00 0.00 45 1011.3
20260504214554 20 256 6.4 12.9 0.00 0.00 0.00 45 1011.2
20260504214048 20 178 3.2 12.9 0.00 0.00 0.00 43 1011.2
20260504213547 21 254 4.8 12.9 0.00 0.00 0.00 43 1011.3
20260504213050 21 207 0.0 12.9 0.00 0.00 0.00 44 1011.2
20260504212549 21 0 0.0 11.3 0.00 0.00 0.00 43 1011.2
20260504212047 21 208 0.0 6.4 0.00 0.00 0.00 44 1011.3
20260504211553 21 0 0.0 11.3 0.00 0.00 0.00 43 1011.2
20260504211049 21 0 3.2 11.3 0.00 0.00 0.00 44 1011.2
20260504210547 21 255 0.0 3.2 0.00 0.00 0.00 45 1011.2
20260504205046 21 261 4.8 11.3 0.00 0.00 0.00 44 1011.2
20260504204601 21 194 4.8 9.7 0.00 0.00 0.00 43 1011.2
20260504204048 21 198 3.2 19.3 0.00 0.00 0.00 43 1011.3
20260504203548 21 241 4.8 19.3 0.00 0.00 0.00 44 1011.3
20260504203050 21 244 6.4 16.1 0.00 0.00 0.00 44 1011.3
20260504202548 21 244 4.8 12.9 0.00 0.00 0.00 43 1011.4
20260504202048 21 197 6.4 16.1 0.00 0.00 0.00 45 1011.4
20260504201550 21 197 6.4 16.1 0.00 0.00 0.00 46 1011.5
20260504201048 21 257 6.4 16.1 0.00 0.00 0.00 45 1011.5
20260504200546 21 255 4.8 12.9 0.00 0.00 0.00 42 1011.5
20260504200051 21 213 4.8 19.3 0.00 0.00 0.00 41 1011.6
20260504195545 21 257 6.4 25.7 0.00 0.00 0.00 44 1011.6
20260504195047 21 209 8.0 25.7 0.00 0.00 0.00 41 1011.7
20260504194605 21 261 6.4 19.3 0.00 0.00 0.00 41 1011.7
20260504194047 21 255 9.7 19.3 0.00 0.00 0.00 42 1011.8
20260504193547 21 201 6.4 14.5 0.00 0.00 0.00 40 1011.7
20260504193052 21 264 3.2 17.7 0.00 0.00 0.00 45 1011.8
20260504192548 21 205 8.0 19.3 0.00 0.00 0.00 41 1011.9
20260504192048 21 197 8.0 19.3 0.00 0.00 0.00 41 1012.0
20260504191552 21 254 6.4 17.7 0.00 0.00 0.00 43 1012.0
20260504191048 21 266 8.0 19.3 0.00 0.00 0.00 44 1012.2
20260504190547 21 244 4.8 19.3 0.00 0.00 0.00 44 1012.3
20260504190117 20 205 8.0 20.9 0.00 0.00 0.00 42 1012.4
20260504185546 20 276 6.4 20.9 0.00 0.00 0.00 44 1012.2
20260504185045 20 239 8.0 20.9 0.00 0.00 0.00 42 1012.4
20260504184557 20 261 4.8 12.9 0.00 0.00 0.00 42 1012.3
20260504184047 20 225 4.8 12.9 0.00 0.00 0.00 42 1012.4
20260504183547 20 156 3.2 14.5 0.00 0.00 0.00 42 1012.5
20260504183054 20 226 4.8 14.5 0.00 0.00 0.00 46 1012.5
20260504182546 20 262 6.4 14.5 0.00 0.00 0.00 44 1012.6
20260504182047 20 234 1.6 14.5 0.00 0.00 0.00 46 1012.6
20260504181603 20 169 3.2 11.3 0.00 0.00 0.00 44 1012.8
20260504181047 20 252 4.8 14.5 0.00 0.00 0.00 44 1012.8
20260504180547 20 261 3.2 17.7 0.00 0.00 0.00 45 1012.8
20260504180208 19 283 3.2 17.7 0.00 0.00 0.00 45 1013.0
20260504175547 19 256 4.8 20.9 0.00 0.00 0.00 45 1013.1
20260504175052 19 240 6.4 20.9 0.00 0.00 0.00 44 1013.3
20260504174555 19 206 4.8 17.7 0.00 0.00 0.00 45 1013.2
20260504174049 19 211 4.8 17.7 0.00 0.00 0.00 47 1013.2
20260504173545 19 246 4.8 14.5 0.00 0.00 0.00 45 1013.3
20260504173059 18 222 6.4 14.5 0.00 0.00 0.00 45 1013.4
20260504172545 18 257 3.2 12.9 0.00 0.00 0.00 43 1013.5
20260504172045 18 296 4.8 17.7 0.00 0.00 0.00 45 1013.5
20260504171558 18 288 4.8 17.7 0.00 0.00 0.00 46 1013.7
20260504171045 18 273 4.8 16.1 0.00 0.00 0.00 45 1013.9
20260504170545 18 237 4.8 16.1 0.00 0.00 0.00 44 1013.7
20260504151048 16 196 6.4 19.3 0.00 0.00 0.00 44 1015.2
20260504150548 16 251 6.4 11.3 0.00 0.00 0.00 45 1015.2
20260504141047 14 251 3.2 11.3 0.00 0.00 0.00 54 1015.3
20260504140547 14 194 3.2 8.0 0.00 0.00 0.00 54 1015.3
20260504140112 13 207 3.2 12.9 0.00 0.00 0.00 54 1015.2
20260504130546 12 200 3.2 9.7 0.00 0.00 0.00 60 1015.5
20260504120112 10 192 4.8 12.9 0.00 0.00 0.00 62 1015.4
20260504110545 8 200 4.8 9.7 0.00 0.00 0.00 58 1015.7
20260504100549 10 194 4.8 8.0 0.00 0.00 0.00 50 1015.6
20260504081553 10 236 1.6 8.0 0.00 0.00 0.00 48 1015.8
20260504081047 10 234 3.2 8.0 0.00 0.00 0.00 48 1015.9
20260504080547 10 223 3.2 8.0 0.00 0.00 0.00 48 1015.9
20260504050547 12 238 4.8 12.9 0.00 0.00 0.00 46 1016.0
20260504050117 11 267 4.8 16.1 0.00 0.00 0.00 45 1016.0
20260504045547 12 251 4.8 16.1 0.00 0.00 0.00 45 1016.0
20260504045047 12 245 6.4 16.1 0.00 0.00 0.00 45 1016.1
20260504044545 11 238 4.8 12.9 0.00 0.00 0.00 45 1016.0
20260504044048 11 251 6.4 12.9 0.00 0.00 0.00 46 1016.0
20260504043548 11 232 4.8 12.9 0.00 0.00 0.00 46 1015.9
20260504043047 11 244 4.8 12.9 0.00 0.00 0.00 46 1015.9
20260504042547 11 250 4.8 12.9 0.00 0.00 0.00 46 1015.8
20260504042047 11 249 4.8 12.9 0.00 0.00 0.00 46 1015.8
20260504041548 11 250 4.8 12.9 0.00 0.00 0.00 46 1015.8
20260504041047 11 242 4.8 11.3 0.00 0.00 0.00 46 1015.7
20260504040547 11 243 4.8 12.9 0.00 0.00 0.00 46 1015.7
20260504035547 11 244 3.2 12.9 0.00 0.00 0.00 47 1015.7
20260504035050 11 256 4.8 14.5 0.00 0.00 0.00 47 1015.7
20260504034552 11 253 4.8 14.5 0.00 0.00 0.00 46 1015.7
20260504034047 11 252 4.8 14.5 0.00 0.00 0.00 46 1015.7
20260504033548 11 234 3.2 11.3 0.00 0.00 0.00 46 1015.7
20260504033057 11 255 3.2 9.7 0.00 0.00 0.00 46 1015.6
20260504032548 11 253 3.2 9.7 0.00 0.00 0.00 47 1015.6
20260504032048 11 252 3.2 12.9 0.00 0.00 0.00 46 1015.6
20260504031619 11 254 4.8 12.9 0.00 0.00 0.00 46 1015.6
20260504031046 11 255 3.2 9.7 0.00 0.00 0.00 46 1015.6
20260504030547 11 239 3.2 8.0 0.00 0.00 0.00 47 1015.4
20260504030053 11 248 3.2 11.3 0.00 0.00 0.00 47 1015.5
20260504025547 11 258 3.2 11.3 0.00 0.00 0.00 46 1015.4
20260504025049 11 262 4.8 11.3 0.00 0.00 0.00 46 1015.4
20260504024553 11 246 3.2 8.0 0.00 0.00 0.00 47 1015.4
20260504024048 11 240 3.2 11.3 0.00 0.00 0.00 47 1015.4
20260504023546 11 250 3.2 11.3 0.00 0.00 0.00 46 1015.5
20260504023049 11 250 3.2 12.9 0.00 0.00 0.00 46 1015.6
20260504022547 11 250 3.2 12.9 0.00 0.00 0.00 46 1015.6
20260504022047 11 251 3.2 12.9 0.00 0.00 0.00 47 1015.7
20260504021602 11 249 3.2 12.9 0.00 0.00 0.00 47 1015.5
20260504021047 11 265 3.2 12.9 0.00 0.00 0.00 48 1015.4
20260504020547 11 248 4.8 12.9 0.00 0.00 0.00 48 1015.6
20260504020052 11 250 3.2 8.0 0.00 0.00 0.00 49 1015.6
20260504015547 10 258 3.2 8.0 0.00 0.00 0.00 51 1015.6
20260504015047 10 252 1.6 6.4 0.00 0.00 0.00 53 1015.5
20260504014553 10 270 0.0 4.8 0.00 0.00 0.00 55 1015.5
20260504014046 10 0 0.0 3.2 0.00 0.00 0.00 55 1015.4
20260504013546 10 0 0.0 4.8 0.00 0.00 0.00 55 1015.3
20260504013051 10 0 0.0 6.4 0.00 0.00 0.00 53 1015.2
20260504012549 10 254 3.2 6.4 0.00 0.00 0.00 50 1015.3
20260504012048 10 248 3.2 6.4 0.00 0.00 0.00 52 1015.3
20260504011553 10 246 1.6 6.4 0.00 0.00 0.00 54 1015.2
20260504011048 10 0 0.0 1.6 0.00 0.00 0.00 55 1015.2
20260504010547 10 0 0.0 4.8 0.00 0.00 0.00 55 1015.2
20260504010057 10 0 0.0 4.8 0.00 0.00 0.00 53 1015.0
20260504005547 10 0 0.0 6.4 0.00 0.00 0.00 54 1015.2
20260504005047 10 0 0.0 6.4 0.00 0.00 0.00 53 1015.1